VKA26 KTMB-KEYW

Flight info

Callsign VKA26
Flight time N/A
Altitude 14000
Route MAYNR3 MAYNR FNTSY FNTSY1
Aircraft AN26/M-SDFGIRY/S

Departure

Time 2026-04-29 12:57
Airport Miami Executive Airport (KTMB)

Arrival

Time N/A
Airport Key West International Airport (KEYW)
Time Latitude Longitude Altitude Speed Heading
2026-04-29 12:35 25.64813 -80.43385 16 ft 0 kts 127°
2026-04-29 12:51 25.64811 -80.43381 16 ft 3 kts 124°
2026-04-29 12:51 25.64791 -80.43358 16 ft 1 kts 154°
2026-04-29 12:52 25.64782 -80.43366 16 ft 2 kts 266°
2026-04-29 12:52 25.64761 -80.43390 16 ft 4 kts 159°
2026-04-29 12:52 25.64693 -80.43290 16 ft 28 kts 128°
2026-04-29 12:52 25.64555 -80.43085 16 ft 22 kts 129°
2026-04-29 12:53 25.64493 -80.43008 16 ft 1 kts 164°
2026-04-29 12:53 25.64439 -80.43076 16 ft 23 kts 255°
2026-04-29 12:53 25.64426 -80.43322 16 ft 34 kts 270°
2026-04-29 12:53 25.64421 -80.43628 16 ft 45 kts 266°
2026-04-29 12:54 25.64401 -80.44011 16 ft 39 kts 263°
2026-04-29 12:54 25.64368 -80.44083 16 ft 0 kts 205°
2026-04-29 12:55 25.64359 -80.44087 16 ft 8 kts 199°
2026-04-29 12:55 25.64294 -80.44078 16 ft 10 kts 114°
2026-04-29 12:55 25.64292 -80.44064 16 ft 0 kts 87°
2026-04-29 12:55 25.64292 -80.44063 16 ft 0 kts 87°
2026-04-29 12:56 25.64297 -80.43972 16 ft 44 kts 87°
2026-04-29 12:56 25.64320 -80.43372 16 ft 108 kts 86°
2026-04-29 12:56 25.64362 -80.42348 38 ft 147 kts 89°
2026-04-29 12:56 25.64370 -80.41151 180 ft 164 kts 91°
2026-04-29 12:57 25.64371 -80.40276 348 ft 171 kts 91°
2026-04-29 12:57 25.64358 -80.38537 901 ft 169 kts 92°
2026-04-29 12:57 25.64333 -80.37231 1315 ft 169 kts 91°
2026-04-29 12:57 25.64343 -80.35939 1665 ft 174 kts 88°
2026-04-29 12:58 25.64350 -80.34563 2013 ft 181 kts 91°
2026-04-29 12:58 25.64034 -80.33210 2371 ft 186 kts 117°
2026-04-29 12:58 25.63219 -80.32068 2685 ft 190 kts 142°
2026-04-29 12:58 25.62071 -80.31381 2987 ft 189 kts 168°
2026-04-29 12:59 25.60788 -80.31258 3292 ft 182 kts 191°
2026-04-29 12:59 25.59583 -80.31617 3584 ft 177 kts 203°
2026-04-29 12:59 25.58451 -80.32070 3876 ft 174 kts 202°
2026-04-29 12:59 25.57283 -80.32455 4152 ft 173 kts 199°
2026-04-29 13:00 25.56113 -80.32798 4384 ft 174 kts 200°
2026-04-29 13:00 25.54956 -80.33155 4619 ft 174 kts 200°
2026-04-29 13:00 25.53802 -80.33529 4871 ft 174 kts 202°
2026-04-29 13:00 25.53028 -80.33791 5027 ft 174 kts 202°
2026-04-29 13:01 25.51484 -80.34309 5355 ft 174 kts 202°
2026-04-29 13:01 25.50329 -80.34698 5594 ft 174 kts 202°
2026-04-29 13:01 25.49166 -80.35090 5837 ft 174 kts 202°
2026-04-29 13:01 25.48023 -80.35471 6077 ft 174 kts 202°
2026-04-29 13:02 25.46865 -80.35857 6315 ft 173 kts 202°
2026-04-29 13:02 25.45704 -80.36245 6554 ft 173 kts 201°
2026-04-29 13:02 25.44564 -80.36623 6776 ft 174 kts 202°
2026-04-29 13:02 25.43390 -80.37005 6998 ft 175 kts 202°
2026-04-29 13:03 25.42220 -80.37386 7214 ft 176 kts 202°
2026-04-29 13:03 25.41048 -80.37762 7431 ft 177 kts 202°
2026-04-29 13:03 25.39872 -80.38139 7671 ft 176 kts 202°
2026-04-29 13:03 25.38695 -80.38523 7914 ft 175 kts 202°
2026-04-29 13:04 25.37587 -80.38998 8137 ft 169 kts 219°
2026-04-29 13:04 25.36687 -80.39798 8382 ft 165 kts 227°
2026-04-29 13:04 25.35847 -80.40667 8599 ft 165 kts 228°
2026-04-29 13:04 25.35007 -80.41544 8774 ft 168 kts 228°
2026-04-29 13:05 25.34164 -80.42429 8942 ft 170 kts 229°
2026-04-29 13:05 25.33297 -80.43336 9120 ft 173 kts 229°
2026-04-29 13:05 25.32415 -80.44260 9310 ft 174 kts 228°
2026-04-29 13:05 25.31543 -80.45179 9505 ft 175 kts 228°
2026-04-29 13:06 25.30657 -80.46113 9703 ft 176 kts 229°
2026-04-29 13:06 25.29764 -80.47053 9884 ft 178 kts 229°
2026-04-29 13:06 25.28862 -80.48001 10034 ft 181 kts 228°
2026-04-29 13:06 25.28260 -80.48640 10145 ft 183 kts 228°
2026-04-29 13:07 25.27037 -80.49949 10382 ft 185 kts 229°
2026-04-29 13:07 25.26109 -80.50943 10567 ft 186 kts 229°
2026-04-29 13:07 25.25175 -80.51937 10754 ft 187 kts 229°
2026-04-29 13:07 25.24244 -80.52921 10943 ft 187 kts 229°
2026-04-29 13:08 25.23306 -80.53915 11134 ft 187 kts 229°
2026-04-29 13:08 25.22366 -80.54912 11302 ft 189 kts 229°
2026-04-29 13:08 25.21407 -80.55929 11421 ft 193 kts 229°
2026-04-29 13:08 25.20420 -80.56977 11559 ft 196 kts 229°
2026-04-29 13:09 25.19444 -80.58013 11710 ft 198 kts 229°
2026-04-29 13:09 25.18438 -80.59077 11873 ft 199 kts 229°
2026-04-29 13:09 25.17433 -80.60143 11971 ft 204 kts 229°
2026-04-29 13:09 25.16408 -80.61236 12032 ft 209 kts 229°
2026-04-29 13:10 25.15353 -80.62368 12121 ft 213 kts 229°
2026-04-29 13:10 25.14281 -80.63521 12229 ft 216 kts 229°
2026-04-29 13:10 25.13197 -80.64688 12351 ft 218 kts 229°
2026-04-29 13:10 25.12113 -80.65864 12461 ft 221 kts 229°
2026-04-29 13:11 25.11021 -80.67066 12552 ft 224 kts 229°
2026-04-29 13:11 25.09914 -80.68291 12659 ft 226 kts 229°
2026-04-29 13:11 25.08807 -80.69517 12775 ft 228 kts 229°
2026-04-29 13:11 25.07669 -80.70746 12863 ft 231 kts 227°
2026-04-29 13:12 25.06475 -80.71965 12932 ft 234 kts 227°
2026-04-29 13:12 25.05269 -80.73181 13001 ft 237 kts 226°
2026-04-29 13:12 25.04040 -80.74418 13080 ft 239 kts 226°
2026-04-29 13:12 25.02819 -80.75648 13164 ft 240 kts 226°
2026-04-29 13:13 25.01584 -80.76896 13256 ft 241 kts 226°
2026-04-29 13:13 25.01172 -80.77307 13289 ft 242 kts 226°
2026-04-29 13:13 24.99161 -80.79426 13482 ft 239 kts 232°
2026-04-29 13:13 24.98096 -80.80827 13596 ft 238 kts 235°
2026-04-29 13:14 24.97062 -80.82264 13678 ft 239 kts 236°
2026-04-29 13:14 24.96042 -80.83708 13763 ft 239 kts 236°
2026-04-29 13:14 24.95027 -80.85174 13846 ft 240 kts 236°
2026-04-29 13:14 24.94031 -80.86625 13916 ft 241 kts 237°
2026-04-29 13:15 24.93015 -80.88111 13979 ft 242 kts 237°
2026-04-29 13:15 24.92004 -80.89592 13975 ft 242 kts 237°
2026-04-29 13:15 24.90990 -80.91075 13976 ft 242 kts 237°
2026-04-29 13:15 24.89980 -80.92556 13979 ft 243 kts 237°
2026-04-29 13:16 24.88959 -80.94038 13941 ft 244 kts 236°
2026-04-29 13:16 24.87918 -80.95526 13904 ft 246 kts 236°
2026-04-29 13:16 24.86876 -80.97008 13947 ft 244 kts 236°
2026-04-29 13:16 24.85846 -80.98475 13986 ft 242 kts 236°
2026-04-29 13:17 24.85503 -80.98963 13996 ft 242 kts 236°
2026-04-29 13:17 24.84134 -81.00915 14009 ft 242 kts 236°
2026-04-29 13:17 24.83101 -81.02389 14007 ft 242 kts 236°
2026-04-29 13:17 24.82075 -81.03851 14010 ft 242 kts 236°
2026-04-29 13:18 24.80705 -81.05810 14016 ft 242 kts 236°
2026-04-29 13:18 24.80016 -81.06795 14020 ft 242 kts 236°
2026-04-29 13:18 24.78662 -81.08737 14030 ft 242 kts 236°
2026-04-29 13:18 24.77627 -81.10223 14032 ft 242 kts 236°
2026-04-29 13:19 24.76610 -81.11681 14030 ft 242 kts 236°
2026-04-29 13:19 24.75589 -81.13145 14024 ft 242 kts 236°
2026-04-29 13:19 24.74566 -81.14616 14008 ft 243 kts 236°
2026-04-29 13:19 24.73533 -81.16105 13996 ft 244 kts 236°
2026-04-29 13:20 24.72514 -81.17577 13987 ft 244 kts 236°
2026-04-29 13:20 24.71475 -81.19080 13982 ft 244 kts 236°
2026-04-29 13:20 24.70460 -81.20548 13975 ft 244 kts 236°
2026-04-29 13:20 24.69432 -81.22034 13974 ft 244 kts 236°
2026-04-29 13:21 24.68406 -81.23520 13972 ft 244 kts 236°
2026-04-29 13:21 24.67375 -81.25009 13973 ft 244 kts 236°
2026-04-29 13:21 24.66346 -81.26491 13975 ft 243 kts 236°
2026-04-29 13:21 24.65320 -81.27967 13979 ft 243 kts 237°
2026-04-29 13:22 24.64296 -81.29446 13984 ft 243 kts 237°
2026-04-29 13:22 24.63282 -81.30908 13989 ft 243 kts 237°
2026-04-29 13:22 24.62262 -81.32375 13982 ft 236 kts 237°
2026-04-29 13:22 24.61284 -81.33775 13837 ft 228 kts 237°
2026-04-29 13:23 24.60314 -81.35157 13590 ft 225 kts 237°
2026-04-29 13:23 24.59378 -81.36492 13364 ft 222 kts 237°
2026-04-29 13:23 24.58744 -81.37398 13212 ft 219 kts 237°
2026-04-29 13:23 24.57506 -81.39172 13063 ft 221 kts 237°
2026-04-29 13:24 24.56577 -81.40510 12969 ft 221 kts 237°
2026-04-29 13:24 24.55645 -81.41851 12881 ft 222 kts 237°
2026-04-29 13:24 24.54702 -81.43208 12796 ft 222 kts 237°
2026-04-29 13:24 24.53764 -81.44559 12719 ft 223 kts 237°
2026-04-29 13:25 24.52837 -81.45898 12644 ft 223 kts 237°
2026-04-29 13:25 24.50960 -81.48605 12498 ft 222 kts 237°
2026-04-29 13:25 24.50022 -81.49961 12432 ft 222 kts 237°
2026-04-29 13:26 24.49088 -81.51308 12330 ft 218 kts 237°
2026-04-29 13:26 24.48788 -81.51738 12286 ft 215 kts 237°
2026-04-29 13:26 24.47280 -81.53899 11852 ft 216 kts 237°
2026-04-29 13:26 24.46441 -81.55272 11590 ft 214 kts 248°
2026-04-29 13:27 24.46052 -81.56800 11380 ft 209 kts 265°
2026-04-29 13:27 24.45991 -81.58399 11163 ft 208 kts 271°
2026-04-29 13:27 24.46019 -81.59988 10905 ft 209 kts 272°
2026-04-29 13:27 24.46069 -81.61589 10608 ft 213 kts 272°
2026-04-29 13:28 24.46127 -81.63219 10256 ft 218 kts 272°
2026-04-29 13:28 24.46191 -81.64898 9914 ft 222 kts 272°
2026-04-29 13:28 24.46259 -81.66605 9537 ft 228 kts 272°
2026-04-29 13:28 24.46332 -81.68366 9174 ft 232 kts 272°
2026-04-29 13:29 24.46357 -81.68960 9083 ft 232 kts 272°